Home   Weather   Malatya   Past weeks
Flag for Turkey

Past Weather in Malatya, Turkey — Yesterday and Last 2 Weeks

Now
63 °F

Passing clouds.


Feels Like: 63 °F
Forecast: 86 / 56 °F
Wind: 6 mph from West

Location: Malatya / Erhac

Current Time: Jun 20, 2019 at 10:25:35 pm

Latest Report: Jun 20, 2019 at 9:50 pm


Visibility: N/A

Pressure: 29.83 "Hg (26.64 "Hg at 960m altitude)

Humidity: 83%

Dew Point: 57 °F

Location of MalatyaLocation

Past Weather in Malatya — Graph

°F

Malatya Temperature Yesterday

Maximum temperature yesterday: 88 °F (at 3:20 pm)
Minimum temperature yesterday: 55 °F (at 4:50 am)
Average temperature yesterday: 75 °F

High & Low Weather Summary for the Past Weeks

 TemperatureHumidityPressure
High95 °F (Jun 9, 2:50 pm)100% (Jun 17, 5:20 am)30.04 "Hg (Jun 17, 5:20 am)
Low50 °F (Jun 7, 5:50 am)10% (Jun 7, 4:50 pm)29.74 "Hg (Jun 11, 5:20 pm)
Average75 °F42%29.87 "Hg
* Reported Jun 5 8:20 pm — Jun 20 8:50 pm, Malatya. Weather by CustomWeather, © 2019

Note: Actual official high and low records may vary slightly from our data, if they occured in-between our weather recording intervals... More about our weather records

Advertising

Malatya Weather History for the Previous 24 Hours

Scroll right to see more
 ConditionsComfort  
Time TempWeatherWind HumidityBarometerVisibility
8:50 pm
Thu, Jun 20
64 °FPassing clouds.6 mph83%29.83 "HgN/A
8:20 pm64 °FPassing clouds.7 mph88%29.83 "HgN/A
7:50 pm68 °FScattered clouds.2 mph73%29.83 "HgN/A
7:20 pm68 °FScattered clouds.3 mph73%29.83 "HgN/A
6:50 pm70 °FScattered clouds.5 mph64%29.80 "HgN/A
6:20 pm68 °FPartly sunny.6 mph73%29.80 "HgN/A
5:50 pm68 °FPartly sunny.9 mph78%29.80 "HgN/A
5:20 pm70 °FPartly sunny.7 mph69%29.80 "HgN/A
4:50 pm68 °FPartly sunny.8 mph78%29.83 "HgN/A
4:20 pm68 °FSprinkles. Partly sunny.10 mph78%29.86 "HgN/A
3:50 pm70 °FSprinkles. Partly sunny.8 mph73%29.83 "HgN/A
3:20 pm66 °FPartly sunny.9 mph83%29.80 "HgN/A
2:50 pm66 °FThunderstorms. Partly sunny.12 mph83%29.80 "HgN/A
2:20 pm64 °FThunderstorms. Partly sunny.7 mph88%29.80 "HgN/A
1:50 pm68 °FThunderstorms. Partly sunny.9 mph69%29.80 "HgN/A
1:20 pm72 °FThunderstorms. Partly sunny.6 mph50%29.80 "HgN/A
12:50 pm75 °FThunderstorms. Partly sunny.14 mph50%29.80 "HgN/A
12:20 pm82 °FThunderstorms. Partly sunny.6 mph37%29.77 "HgN/A
11:50 am86 °FPassing clouds.6 mph33%29.77 "HgN/A
11:20 am84 °FPartly sunny.8 mph35%29.77 "HgN/A
10:50 am84 °FPartly sunny.7 mph35%29.77 "HgN/A
10:20 am82 °FBroken clouds.5 mph40%29.77 "HgN/A
9:50 am81 °FScattered clouds.5 mph42%29.80 "HgN/A
9:20 am81 °FScattered clouds.6 mph42%29.80 "HgN/A
8:50 am79 °FScattered clouds.5 mph48%29.80 "HgN/A
8:20 am77 °FPassing clouds.3 mph51%29.80 "HgN/A
7:50 am75 °FPassing clouds.3 mph54%29.80 "HgN/A
7:20 am72 °FPassing clouds.5 mph57%29.80 "HgN/A
6:50 am72 °FScattered clouds.2 mph57%29.80 "HgN/A
6:20 am68 °FScattered clouds.2 mph69%29.80 "HgN/A
5:50 am63 °FScattered clouds.3 mph83%29.77 "HgN/A
5:20 am61 °FPassing clouds.5 mph83%29.77 "HgN/A
4:50 am61 °FPassing clouds.2 mph83%29.77 "HgN/A
4:20 am61 °FPassing clouds.2 mph83%29.77 "HgN/A
3:50 am64 °FPassing clouds.5 mph73%29.77 "HgN/A
3:20 am64 °FPassing clouds.3 mph73%29.77 "HgN/A
2:50 am66 °FPassing clouds.5 mph68%29.77 "HgN/A
2:20 am66 °FPassing clouds.6 mph68%29.80 "HgN/A
1:50 am66 °FPassing clouds.6 mph68%29.80 "HgN/A
1:20 am68 °FPassing clouds.5 mph64%29.80 "HgN/A
12:50 am70 °FPassing clouds.6 mph60%29.80 "HgN/A
12:20 am72 °FPassing clouds.5 mph53%29.80 "HgN/A
11:50 pm
Wed, Jun 19
72 °FPassing clouds.3 mph53%29.80 "HgN/A
11:20 pm75 °FPassing clouds.6 mph41%29.80 "HgN/A
10:50 pm77 °FPartly cloudy.12 mph42%29.77 "HgN/A
10:20 pm77 °FPartly cloudy.16 mph42%29.77 "HgN/A
Weather by CustomWeather, © 2019

See weather overview